FW5164 Weather Reports


time (UTC)temp
C
wind
direction
speed
KPH
gust
KPH
rain 1hr
cm
rain 24hr
cm
rain mn
cm
humidity
%
barometer
mb
20260505170549 25 171 24.1 48.3 0.00 0.00 0.00 76 1007.4
20260505170050 24 155 27.4 48.3 0.00 0.00 0.00 76 1007.5
20260505165549 24 148 30.6 46.7 0.00 0.00 0.00 76 1007.5
20260505165049 24 127 29.0 43.5 0.00 0.00 0.00 76 1007.7
20260505164600 24 163 17.7 43.5 0.00 0.00 0.00 77 1007.8
20260505164049 24 134 27.4 43.5 0.00 0.00 0.00 78 1007.7
20260505163549 23 140 24.1 46.7 0.00 0.00 0.00 78 1007.9
20260505163050 23 265 12.9 32.2 0.00 0.00 0.00 80 1008.3
20260505162548 23 148 24.1 46.7 0.00 0.00 0.00 78 1008.0
20260505162049 23 149 16.1 38.6 0.00 0.00 0.00 79 1008.1
20260505161602 23 283 11.3 30.6 0.00 0.00 0.00 80 1008.3
20260505161556 23 186 20.9 40.2 0.00 0.00 0.00 79 1008.0
20260505161049 23 146 17.7 45.1 0.00 0.00 0.00 79 1008.0
20260505160551 23 124 22.5 45.1 0.00 0.00 0.00 79 1008.0
20260505153107 23 146 17.7 37.0 0.00 0.00 0.00 80 1007.8
20260505153100 23 277 14.5 29.0 0.00 0.00 0.00 81 1008.1
20260505152552 23 126 20.9 37.0 0.00 0.00 0.00 80 1007.8
20260505152051 23 162 20.9 38.6 0.00 0.00 0.00 80 1007.9
20260505151603 22 233 14.5 24.1 0.00 0.00 0.00 81 1008.2
20260505151552 22 121 22.5 38.6 0.00 0.00 0.00 80 1007.8
20260505151049 22 166 20.9 38.6 0.00 0.00 0.00 80 1007.8
20260505150549 22 136 16.1 40.2 0.00 0.00 0.00 80 1007.9
20260505140549 22 146 19.3 37.0 0.00 0.00 0.00 82 1007.7
20260505140110 22 249 11.3 25.7 0.00 0.00 0.00 81 1008.1
20260505124607 21 223 9.7 24.1 0.00 0.00 0.00 82 1007.8
20260505124049 21 172 16.1 30.6 0.00 0.00 0.00 83 1007.1
20260505123551 21 144 16.1 30.6 0.00 0.00 0.00 83 1007.0
20260505123100 21 158 17.7 33.8 0.00 0.00 0.00 83 1006.8
20260505123055 21 216 8.0 25.7 0.00 0.00 0.00 82 1007.4
20260505122549 21 119 16.1 33.8 0.00 0.00 0.00 83 1006.8
20260505122048 21 169 19.3 30.6 0.00 0.00 0.00 83 1006.7
20260505121557 21 163 17.7 32.2 0.00 0.00 0.00 83 1006.8
20260505121552 21 258 9.7 22.5 0.00 0.00 0.00 82 1007.4
20260505121052 21 137 17.7 32.2 0.00 0.00 0.00 83 1006.8
20260505120548 21 132 14.5 32.2 0.00 0.00 0.00 83 1006.9
20260505120103 21 92 17.7 29.0 0.00 0.00 0.00 84 1006.9
20260505120055 21 210 11.3 24.1 0.00 0.00 0.00 82 1007.3
20260505115550 21 146 14.5 27.4 0.00 0.00 0.00 84 1006.9
20260505115048 21 145 17.7 33.8 0.00 0.00 0.00 84 1006.6
20260505114559 21 244 11.3 19.3 0.00 0.00 0.00 83 1007.2
20260505114554 21 142 17.7 33.8 0.00 0.00 0.00 84 1006.6
20260505114049 21 168 19.3 33.8 0.00 0.00 0.00 84 1006.6
20260505113548 21 117 16.1 32.2 0.00 0.00 0.00 84 1006.6
20260505113111 21 171 16.1 32.2 0.00 0.00 0.00 84 1006.5
20260505113109 21 217 8.0 24.1 0.00 0.00 0.00 83 1006.9
20260505112550 21 125 20.9 32.2 0.00 0.00 0.00 84 1006.7
20260505112049 21 155 14.5 37.0 0.00 0.00 0.00 84 1006.8
20260505111554 21 107 17.7 37.0 0.00 0.00 0.00 84 1006.6
20260505111552 21 263 12.9 25.7 0.00 0.00 0.00 83 1006.9
20260505111053 21 118 19.3 32.2 0.00 0.00 0.00 84 1006.6
20260505110549 21 118 16.1 29.0 0.00 0.00 0.00 84 1006.4
20260505102049 21 140 17.7 38.6 0.00 0.00 0.00 83 1006.7
20260505101554 21 240 9.7 22.5 0.00 0.00 0.00 82 1007.5
20260505101550 21 146 17.7 37.0 0.00 0.00 0.00 83 1006.9
20260505101053 21 138 17.7 38.6 0.00 0.00 0.00 83 1007.0
20260505100549 21 194 17.7 38.6 0.00 0.00 0.00 83 1007.1
20260505100049 21 235 14.5 27.4 0.00 0.00 0.00 82 1007.1
20260505095549 21 191 17.7 40.2 0.00 0.00 0.00 83 1006.9
20260505095049 21 138 20.9 40.2 0.00 0.00 0.00 83 1006.8
20260505094556 21 134 17.7 40.2 0.00 0.00 0.00 83 1006.8
20260505094549 21 234 11.3 25.7 0.00 0.00 0.00 82 1007.3
20260505094048 21 153 19.3 38.6 0.00 0.00 0.00 83 1006.9
20260505093548 21 134 22.5 38.6 0.00 0.00 0.00 83 1006.9
20260505093059 21 239 12.9 32.2 0.00 0.00 0.00 82 1007.1
20260505092548 21 148 20.9 43.5 0.00 0.00 0.00 83 1006.9
20260505092049 21 143 19.3 43.5 0.00 0.00 0.00 83 1006.8
20260505091601 21 238 12.9 32.2 0.00 0.00 0.00 82 1007.0
20260505091553 21 158 20.9 37.0 0.00 0.00 0.00 83 1006.7
20260505091048 21 183 14.5 35.4 0.00 0.00 0.00 83 1006.7
20260505090549 21 128 20.9 38.6 0.00 0.00 0.00 82 1006.8
20260505090059 21 101 12.9 38.6 0.00 0.00 0.00 82 1006.6
20260505090052 21 236 9.7 20.9 0.00 0.00 0.00 81 1007.2
20260505085549 21 150 20.9 38.6 0.00 0.00 0.00 82 1006.7
20260505085052 21 118 16.1 38.6 0.00 0.00 0.00 82 1006.8
20260505084555 21 126 22.5 35.4 0.00 0.00 0.00 82 1006.9
20260505084552 21 266 9.7 20.9 0.00 0.00 0.00 81 1007.2
20260505084050 21 144 19.3 37.0 0.00 0.00 0.00 82 1007.0
20260505083551 21 138 17.7 37.0 0.00 0.00 0.00 82 1007.0
20260505083100 21 248 12.9 25.7 0.00 0.00 0.00 81 1007.5
20260505083054 21 115 19.3 32.2 0.00 0.00 0.00 82 1007.0
20260505082548 21 117 17.7 30.6 0.00 0.00 0.00 82 1007.1
20260505082049 21 111 16.1 35.4 0.00 0.00 0.00 82 1007.3
20260505081605 21 141 16.1 35.4 0.00 0.00 0.00 82 1007.4
20260505081049 21 117 17.7 35.4 0.00 0.00 0.00 82 1007.4
20260505080548 21 128 17.7 37.0 0.00 0.00 0.00 82 1007.5
20260505080059 21 123 19.3 37.0 0.00 0.00 0.00 82 1007.6
20260505080053 21 261 14.5 27.4 0.00 0.00 0.00 81 1007.6
20260505075548 21 148 19.3 33.8 0.00 0.00 0.00 82 1007.6
20260505075048 21 132 19.3 33.8 0.00 0.00 0.00 82 1007.5
20260505074559 21 111 17.7 37.0 0.00 0.00 0.00 82 1007.4
20260505074553 21 243 12.9 30.6 0.00 0.00 0.00 81 1007.9
20260505074048 21 169 16.1 38.6 0.00 0.00 0.00 82 1007.5
20260505073548 21 148 19.3 38.6 0.00 0.00 0.00 82 1007.5
20260505073111 21 250 14.5 30.6 0.00 0.00 0.00 81 1008.2
20260505073100 21 138 20.9 38.6 0.00 0.00 0.00 82 1007.6
20260505072548 21 144 17.7 37.0 0.00 0.00 0.00 82 1007.7
20260505072048 21 132 20.9 37.0 0.00 0.00 0.00 82 1007.9
20260505071600 21 237 12.9 27.4 0.00 0.00 0.00 80 1008.4
20260505071552 21 123 22.5 37.0 0.00 0.00 0.00 82 1008.0
20260505071049 21 134 20.9 37.0 0.00 0.00 0.00 81 1007.9
20260505070550 21 133 19.3 37.0 0.00 0.00 0.00 82 1008.2
20260505070100 21 203 14.5 24.1 0.00 0.00 0.00 80 1008.5
20260505070052 21 175 17.7 37.0 0.00 0.00 0.00 82 1008.0
20260505065550 21 103 17.7 37.0 0.00 0.00 0.00 82 1008.2
20260505065049 21 140 19.3 33.8 0.00 0.00 0.00 82 1008.4
20260505064557 21 130 19.3 35.4 0.00 0.00 0.00 81 1008.3
20260505064552 21 238 11.3 25.7 0.00 0.00 0.00 80 1008.8
20260505064048 21 181 17.7 35.4 0.00 0.00 0.00 81 1008.4
20260505063548 21 146 16.1 33.8 0.00 0.00 0.00 81 1008.6
20260505063057 21 111 17.7 41.8 0.00 0.00 0.00 81 1008.6
20260505063053 21 254 14.5 30.6 0.00 0.00 0.00 79 1008.9
20260505062548 21 136 20.9 41.8 0.00 0.00 0.00 80 1008.3
20260505062049 21 132 19.3 40.2 0.00 0.00 0.00 80 1008.5
20260505061556 21 146 20.9 48.3 0.00 0.00 0.00 80 1008.4
20260505061048 21 134 20.9 48.3 0.00 0.00 0.00 80 1008.3
20260505060545 21 92 22.5 46.7 0.00 0.00 0.00 80 1008.5
20260505060059 21 119 19.3 32.2 0.00 0.00 0.00 80 1008.6
20260505060056 21 218 12.9 25.7 0.00 0.00 0.00 79 1008.6
20260505055551 21 115 17.7 37.0 0.00 0.00 0.00 79 1008.5
20260505055053 21 105 20.9 37.0 0.00 0.00 0.00 79 1008.5
20260505054600 21 120 20.9 33.8 0.00 0.00 0.00 79 1008.4
20260505054555 21 219 11.3 22.5 0.00 0.00 0.00 79 1008.8
20260505054053 21 92 19.3 33.8 0.00 0.00 0.00 79 1008.3
20260505053550 21 115 17.7 32.2 0.00 0.00 0.00 79 1008.6
20260505053115 21 143 17.7 37.0 0.00 0.00 0.00 78 1008.6
20260505053057 22 267 12.9 29.0 0.00 0.00 0.00 78 1009.1
20260505052551 21 138 20.9 37.0 0.00 0.00 0.00 78 1008.8
20260505052050 21 137 17.7 33.8 0.00 0.00 0.00 78 1008.8
20260505051602 22 238 11.3 24.1 0.00 0.00 0.00 78 1008.9
20260505051554 21 137 16.1 33.8 0.00 0.00 0.00 78 1008.7
20260505051051 22 123 12.9 37.0 0.00 0.00 0.00 78 1008.6
20260505050550 22 132 14.5 37.0 0.00 0.00 0.00 78 1008.6
20260505050107 22 134 16.1 33.8 0.00 0.00 0.00 78 1008.5
20260505041557 22 221 12.9 27.4 0.00 0.00 0.00 77 1008.9
20260505041549 22 119 22.5 33.8 0.00 0.00 0.00 76 1008.6
20260505041053 22 144 17.7 33.8 0.00 0.00 0.00 76 1008.5
20260505040554 22 132 17.7 32.2 0.00 0.00 0.00 76 1008.5
20260505040052 22 130 17.7 32.2 0.00 0.00 0.00 76 1008.5
20260505040049 22 207 8.0 30.6 0.00 0.00 0.00 76 1008.9
20260505035551 22 117 16.1 32.2 0.00 0.00 0.00 76 1008.5
20260505035050 22 123 16.1 32.2 0.00 0.00 0.00 76 1008.4
20260505034613 22 144 12.9 29.0 0.00 0.00 0.00 75 1008.5
20260505034553 22 221 11.3 19.3 0.00 0.00 0.00 76 1008.8
20260505034050 22 145 14.5 27.4 0.00 0.00 0.00 75 1008.5
20260505033550 22 144 14.5 27.4 0.00 0.00 0.00 74 1008.6
20260505033057 22 144 17.7 27.4 0.00 0.00 0.00 74 1008.7
20260505033053 22 225 9.7 19.3 0.00 0.00 0.00 75 1009.1
20260505032550 22 157 19.3 29.0 0.00 0.00 0.00 74 1008.8
20260505032049 22 96 16.1 33.8 0.00 0.00 0.00 73 1008.7
20260505031556 22 221 9.7 20.9 0.00 0.00 0.00 75 1008.8
20260505031051 22 118 19.3 33.8 0.00 0.00 0.00 73 1008.4
20260505030553 22 142 17.7 29.0 0.00 0.00 0.00 72 1008.5
20260505030056 23 132 16.1 29.0 0.00 0.00 0.00 72 1008.5
20260505025551 23 151 14.5 38.6 0.00 0.00 0.00 72 1008.4
20260505025050 23 158 20.9 38.6 0.00 0.00 0.00 72 1008.5
20260505024601 22 221 6.4 14.5 0.00 0.00 0.00 74 1008.6
20260505024552 23 98 17.7 29.0 0.00 0.00 0.00 72 1008.3
20260505024050 23 107 17.7 24.1 0.00 0.00 0.00 72 1008.1
20260505023549 22 138 14.5 24.1 0.00 0.00 0.00 72 1008.4
20260505023056 22 207 4.8 12.9 0.00 0.00 0.00 74 1008.5
20260505023053 22 150 12.9 19.3 0.00 0.00 0.00 72 1008.2
20260505022551 22 137 9.7 20.9 0.00 0.00 0.00 72 1008.2
20260505022045 22 121 12.9 20.9 0.00 0.00 0.00 72 1008.2
20260505021555 22 199 6.4 14.5 0.00 0.00 0.00 73 1008.6
20260505021549 22 120 12.9 20.9 0.00 0.00 0.00 72 1008.2
20260505021049 23 116 11.3 20.9 0.00 0.00 0.00 72 1008.4
20260505020548 23 117 11.3 19.3 0.00 0.00 0.00 72 1008.1
20260505020055 23 217 4.8 12.9 0.00 0.00 0.00 72 1008.5
20260505020049 23 94 9.7 19.3 0.00 0.00 0.00 72 1008.1
20260505015549 23 94 11.3 19.3 0.00 0.00 0.00 71 1008.1
20260505015049 23 118 11.3 19.3 0.00 0.00 0.00 71 1008.0
20260505014553 23 229 4.8 14.5 0.00 0.00 0.00 71 1008.3
20260505014551 23 85 11.3 20.9 0.00 0.00 0.00 71 1008.1
20260505014048 23 107 11.3 20.9 0.00 0.00 0.00 70 1008.0
20260505013548 23 136 12.9 20.9 0.00 0.00 0.00 70 1007.8
20260505013121 23 228 6.4 9.7 0.00 0.00 0.00 71 1008.2
20260505013053 23 96 12.9 20.9 0.00 0.00 0.00 70 1007.9
20260505012545 23 118 14.5 20.9 0.00 0.00 0.00 69 1007.9
20260505012045 23 121 11.3 19.3 0.00 0.00 0.00 69 1007.9
20260505011609 23 78 12.9 19.3 0.00 0.00 0.00 69 1007.9
20260505011600 23 226 8.0 14.5 0.00 0.00 0.00 70 1008.3
20260505011045 23 119 11.3 24.1 0.00 0.00 0.00 68 1008.0
20260505010549 23 107 12.9 24.1 0.00 0.00 0.00 68 1008.1
20260505010100 23 237 6.4 17.7 0.00 0.00 0.00 68 1008.3
20260505010051 23 101 11.3 20.9 0.00 0.00 0.00 68 1008.2
20260505005548 24 138 11.3 20.9 0.00 0.00 0.00 67 1008.2
20260505005049 24 119 11.3 22.5 0.00 0.00 0.00 67 1008.3
20260505004605 24 123 11.3 25.7 0.00 0.00 0.00 66 1008.3
20260505004551 24 223 8.0 14.5 0.00 0.00 0.00 68 1008.5
20260505004049 25 103 14.5 25.7 0.00 0.00 0.00 66 1008.3
20260505003548 25 103 14.5 25.7 0.00 0.00 0.00 66 1008.4
20260505003056 25 232 8.0 16.1 0.00 0.00 0.00 66 1008.5
20260505003053 25 104 9.7 24.1 0.00 0.00 0.00 65 1008.4
20260505002548 25 139 11.3 25.7 0.00 0.00 0.00 65 1008.5
20260505002048 25 142 12.9 27.4 0.00 0.00 0.00 65 1008.3
20260505001605 25 120 14.5 32.2 0.00 0.00 0.00 64 1008.5
20260505001552 25 231 8.0 16.1 0.00 0.00 0.00 65 1008.6
20260505001048 25 119 17.7 37.0 0.00 0.00 0.00 64 1008.2
20260505000548 25 131 19.3 37.0 0.00 0.00 0.00 63 1008.1
20260505000107 25 104 17.7 35.4 0.00 0.00 0.00 63 1008.2
20260505000100 25 233 8.0 19.3 0.00 0.00 0.00 64 1008.5
20260504235548 25 108 16.1 33.8 0.00 0.00 0.00 63 1008.0
20260504235051 25 134 19.3 35.4 0.00 0.00 0.00 63 1008.3
20260504234556 25 140 17.7 38.6 0.00 0.00 0.00 62 1008.6
20260504234551 25 229 11.3 29.0 0.00 0.00 0.00 63 1008.6
20260504234045 26 124 22.5 38.6 0.00 0.00 0.00 62 1008.4
20260504233549 25 111 19.3 35.4 0.00 0.00 0.00 63 1008.6
20260504233106 25 117 17.7 37.0 0.00 0.00 0.00 63 1008.5
20260504233104 26 217 14.5 27.4 0.00 0.00 0.00 62 1008.8
20260504232550 26 126 20.9 37.0 0.00 0.00 0.00 62 1008.6
20260504232054 26 138 20.9 35.4 0.00 0.00 0.00 62 1008.6
20260504231557 26 244 14.5 29.0 0.00 0.00 0.00 62 1008.9
20260504231548 26 108 16.1 33.8 0.00 0.00 0.00 62 1008.7
20260504231050 26 109 19.3 35.4 0.00 0.00 0.00 61 1008.7
20260504230550 26 132 19.3 37.0 0.00 0.00 0.00 62 1008.9
20260504230103 26 243 12.9 25.7 0.00 0.00 0.00 62 1009.1
20260504230048 26 98 16.1 41.8 0.00 0.00 0.00 62 1008.9
20260504225553 25 139 24.1 41.8 0.00 0.00 0.00 61 1008.9
20260504225050 26 133 17.7 38.6 0.00 0.00 0.00 61 1009.0
20260504224552 26 224 14.5 30.6 0.00 0.00 0.00 61 1009.3
20260504224051 26 101 17.7 32.2 0.00 0.00 0.00 61 1009.0
20260504223550 26 138 20.9 40.2 0.00 0.00 0.00 61 1009.0
20260504223101 26 238 16.1 27.4 0.00 0.00 0.00 60 1009.4
20260504223054 26 105 22.5 48.3 0.00 0.00 0.00 61 1009.0
20260504222553 26 140 17.7 48.3 0.00 0.00 0.00 60 1009.0
20260504222049 26 159 20.9 40.2 0.00 0.00 0.00 60 1009.1
20260504221555 26 215 17.7 30.6 0.00 0.00 0.00 60 1009.5
20260504221049 26 107 19.3 41.8 0.00 0.00 0.00 59 1009.1
20260504220550 26 132 17.7 41.8 0.00 0.00 0.00 59 1009.3
20260504220057 26 262 16.1 30.6 0.00 0.00 0.00 59 1009.4
20260504220052 26 136 22.5 37.0 0.00 0.00 0.00 59 1009.3
20260504215551 26 140 22.5 37.0 0.00 0.00 0.00 59 1009.2
20260504215050 26 141 19.3 38.6 0.00 0.00 0.00 60 1009.5
20260504214601 27 263 16.1 30.6 0.00 0.00 0.00 60 1009.9
20260504214549 26 126 20.9 40.2 0.00 0.00 0.00 58 1009.5
20260504214050 26 111 20.9 40.2 0.00 0.00 0.00 59 1009.7
20260504213550 26 125 17.7 33.8 0.00 0.00 0.00 59 1009.9
20260504213106 27 217 14.5 33.8 0.00 0.00 0.00 58 1010.1
20260504213055 26 137 17.7 45.1 0.00 0.00 0.00 58 1009.7
20260504212549 26 126 22.5 45.1 0.00 0.00 0.00 58 1009.8
20260504212050 26 129 22.5 38.6 0.00 0.00 0.00 58 1009.9
20260504211553 26 232 19.3 37.0 0.00 0.00 0.00 58 1010.3
20260504211550 26 105 24.1 40.2 0.00 0.00 0.00 58 1009.8
20260504211050 26 135 27.4 40.2 0.00 0.00 0.00 57 1009.9
20260504210550 26 120 20.9 41.8 0.00 0.00 0.00 58 1010.1
20260504210059 26 146 24.1 46.7 0.00 0.00 0.00 57 1010.2
20260504205550 26 145 27.4 46.7 0.00 0.00 0.00 56 1010.3
20260504205052 26 132 22.5 41.8 0.00 0.00 0.00 56 1010.4
20260504204555 26 258 14.5 32.2 0.00 0.00 0.00 57 1010.9
20260504204548 26 145 20.9 41.8 0.00 0.00 0.00 57 1010.5
20260504204049 27 150 20.9 38.6 0.00 0.00 0.00 56 1010.7
20260504203550 27 140 17.7 43.5 0.00 0.00 0.00 57 1010.8
20260504203056 27 260 14.5 33.8 0.00 0.00 0.00 57 1011.3
20260504202550 26 123 24.1 43.5 0.00 0.00 0.00 57 1010.8
20260504202053 26 116 20.9 43.5 0.00 0.00 0.00 58 1010.8
20260504201616 27 242 11.3 32.2 0.00 0.00 0.00 56 1011.5
20260504201551 26 159 24.1 41.8 0.00 0.00 0.00 57 1011.0
20260504201050 26 132 20.9 41.8 0.00 0.00 0.00 58 1011.3
20260504200550 26 131 22.5 41.8 0.00 0.00 0.00 57 1011.2
20260504200100 26 134 25.7 41.8 0.00 0.00 0.00 57 1011.4
20260504200057 26 256 12.9 27.4 0.00 0.00 0.00 57 1011.6
20260504195549 26 109 24.1 48.3 0.00 0.00 0.00 57 1011.4
20260504195050 26 137 29.0 48.3 0.00 0.00 0.00 57 1011.4
20260504194602 26 150 25.7 41.8 0.00 0.00 0.00 57 1011.5
20260504194555 26 263 14.5 35.4 0.00 0.00 0.00 55 1012.0
20260504194051 26 105 22.5 41.8 0.00 0.00 0.00 57 1011.7
20260504193551 26 167 17.7 43.5 0.00 0.00 0.00 57 1011.4
20260504193113 26 227 12.9 30.6 0.00 0.00 0.00 53 1012.2
20260504193050 26 142 25.7 43.5 0.00 0.00 0.00 57 1011.6
20260504192549 26 136 22.5 46.7 0.00 0.00 0.00 57 1011.7
20260504192050 26 92 25.7 46.7 0.00 0.00 0.00 58 1011.9
20260504191607 26 122 24.1 38.6 0.00 0.00 0.00 57 1012.2
20260504191558 26 263 14.5 24.1 0.00 0.00 0.00 53 1012.7
20260504191049 26 159 24.1 37.0 0.00 0.00 0.00 57 1012.2
20260504190554 26 163 19.3 40.2 0.00 0.00 0.00 57 1012.2
20260504190115 26 214 12.9 32.2 0.00 0.00 0.00 54 1012.9
20260504190053 25 97 22.5 40.2 0.00 0.00 0.00 57 1012.2
20260504185550 26 123 17.7 37.0 0.00 0.00 0.00 56 1012.4
20260504185052 25 138 19.3 32.2 0.00 0.00 0.00 57 1012.5
20260504184611 26 209 12.9 33.8 0.00 0.00 0.00 53 1012.9
20260504184552 26 102 17.7 46.7 0.00 0.00 0.00 57 1012.4
20260504184050 25 142 25.7 46.7 0.00 0.00 0.00 57 1012.6
20260504183550 25 108 19.3 38.6 0.00 0.00 0.00 56 1012.6
20260504183053 25 145 19.3 38.6 0.00 0.00 0.00 56 1012.7
20260504183050 25 202 14.5 29.0 0.00 0.00 0.00 52 1013.2
20260504182552 25 133 20.9 38.6 0.00 0.00 0.00 56 1012.8
20260504182049 25 136 19.3 40.2 0.00 0.00 0.00 56 1012.9
20260504181557 25 232 14.5 27.4 0.00 0.00 0.00 53 1013.2
20260504181050 25 168 24.1 40.2 0.00 0.00 0.00 55 1012.8
20260504180551 25 84 22.5 38.6 0.00 0.00 0.00 55 1012.8
20260504180054 25 232 12.9 27.4 0.00 0.00 0.00 53 1013.6
20260504175550 25 150 16.1 40.2 0.00 0.00 0.00 54 1013.4
20260504175050 25 144 22.5 45.1 0.00 0.00 0.00 54 1013.4
20260504174550 24 139 20.9 45.1 0.00 0.00 0.00 54 1013.5
20260504174051 25 127 24.1 41.8 0.00 0.00 0.00 53 1013.8
20260504173550 24 130 20.9 41.8 0.00 0.00 0.00 54 1013.9
20260504173051 24 138 29.0 40.2 0.00 0.00 0.00 53 1013.8
20260504173049 25 231 14.5 29.0 0.00 0.00 0.00 53 1014.1
20260504172552 24 147 16.1 45.1 0.00 0.00 0.00 56 1013.7
20260504172050 23 143 24.1 45.1 0.00 0.00 0.00 54 1013.9
20260504171557 25 221 12.9 25.7 0.00 0.00 0.00 52 1014.3
20260504171553 24 135 24.1 45.1 0.00 0.00 0.00 52 1014.0
20260504171050 23 114 22.5 40.2 0.00 0.00 0.00 54 1014.0